Date String (YYYY-MM-DD hh:mm:ss) UTC,Instrument flags,absolute air pressure of the measurement (hPa),sample flow rate (lpm),inlet stack bypass flow (lpm),air temperature of the measurement (°C),ambient temperature measured by the external sensor (°C),aerosol sample conditioner tube jacket temperature (°C),OPC LED temperature (°C),internal box temperature (°C),relative humidity of the measurement (%),span deviation,mass concentration of particles derived from Lorenz-Mie calculation of OPC scattering (μg/m³),mass concentration of particles derived from Lorenz-Mie calculation of OPC scattering (μg/m³),mass concentration of particles derived from Lorenz-Mie calculation of OPC scattering (μg/m³)
DateTimeUTC,F1_M11,P_M11,Q1_M11,Q2_M11,T1_M11,T2_M11,T3_M11,T4_M11,T5_M11,U1_M11,ZSPAN_M11,X2_M11,X0_M11,X1_M11
2024-02-19 04:00:00,SystemResetWarning,0823.8,5.00,000.00,019.0,018.4,000.0,027.3,020.6,17.6,0000.0,0000.41,0000.81,0000.35
2024-02-19 04:01:00,SystemResetWarning,0823.9,5.00,000.00,019.0,018.4,000.0,027.3,020.6,17.5,0000.0,0000.44,0000.88,0000.36
2024-02-19 04:02:00,SystemResetWarning,0823.9,5.00,000.00,019.0,018.3,000.0,027.3,020.6,17.8,0000.0,0000.46,0000.93,0000.37
2024-02-19 04:03:00,SystemResetWarning,0823.8,5.00,000.00,019.0,018.3,000.0,027.3,020.6,17.9,0000.0,0000.47,0000.97,0000.37
2024-02-19 04:04:00,SystemResetWarning,0823.8,5.00,000.00,019.0,018.3,000.0,027.3,020.6,18.1,0000.0,0000.49,0001.01,0000.38
2024-02-19 04:05:00,SystemResetWarning,0823.9,4.99,000.00,019.0,018.3,000.0,027.3,020.6,18.2,0000.0,0000.50,0000.99,0000.38
2024-02-19 04:06:00,SystemResetWarning,0823.8,4.99,000.00,019.0,018.3,000.0,027.3,020.6,18.2,0000.0,0000.50,0000.79,0000.38
2024-02-19 04:07:00,SystemResetWarning,0823.8,5.00,000.00,019.0,018.3,000.0,027.3,020.6,18.2,0000.0,0000.50,0000.79,0000.39
2024-02-19 04:08:00,SystemResetWarning,0823.8,4.99,000.00,019.0,018.3,000.0,027.3,020.6,18.2,0000.0,0000.51,0000.80,0000.40
2024-02-19 04:09:00,SystemResetWarning,0823.8,5.00,000.00,018.9,018.3,000.0,027.3,020.6,18.2,0000.0,0000.51,0000.80,0000.41
2024-02-19 04:10:00,SystemResetWarning,0823.8,5.00,000.00,018.9,018.3,000.0,027.3,020.6,18.0,0000.0,0000.52,0000.81,0000.41
2024-02-19 04:11:00,SystemResetWarning,0823.8,5.00,000.00,018.9,018.3,000.0,027.3,020.5,18.2,0000.0,0000.52,0000.81,0000.42
2024-02-19 04:12:00,SystemResetWarning,0823.8,5.00,000.00,018.9,018.3,000.0,027.3,020.5,18.4,0000.0,0000.52,0000.80,0000.42
2024-02-19 04:13:00,SystemResetWarning,0823.8,5.01,000.00,018.9,018.3,000.0,027.3,020.5,18.3,0000.0,0000.52,0001.39,0000.41
2024-02-19 04:14:00,SystemResetWarning,0823.7,4.99,000.00,018.9,018.3,000.0,027.3,020.5,18.1,0000.0,0000.51,0001.37,0000.41
2024-02-19 04:15:00,SystemResetWarning,0823.7,4.99,000.00,018.9,018.3,000.0,027.3,020.6,18.1,0000.0,0000.50,0001.33,0000.40
2024-02-19 04:16:00,SystemResetWarning,0823.6,5.00,000.00,018.9,018.3,000.0,027.2,020.5,18.2,0000.0,0000.49,0001.32,0000.40
2024-02-19 04:17:00,SystemResetWarning,0823.6,5.00,000.00,018.9,018.3,000.0,027.2,020.5,18.3,0000.0,0000.50,0001.31,0000.40
2024-02-19 04:18:00,SystemResetWarning,0823.5,5.00,000.00,018.9,018.3,000.0,027.2,020.5,18.3,0000.0,0000.50,0001.31,0000.40
2024-02-19 04:19:00,SystemResetWarning,0823.4,5.01,000.00,018.9,018.3,000.0,027.2,020.5,18.3,0000.0,0000.53,0001.36,0000.41
2024-02-19 04:20:00,SystemResetWarning,0823.4,5.00,000.00,018.9,018.3,000.0,027.2,020.5,18.2,0000.0,0000.54,0001.39,0000.41
2024-02-19 04:21:00,SystemResetWarning,0823.4,5.00,000.00,018.9,018.2,000.0,027.2,020.5,18.1,0000.0,0000.56,0002.52,0000.41
2024-02-19 04:22:00,SystemResetWarning,0823.4,4.99,000.00,018.8,018.2,000.0,027.2,020.5,18.2,0000.0,0000.58,0002.90,0000.42
2024-02-19 04:23:00,SystemResetWarning,0823.3,4.99,000.00,018.8,018.2,000.0,027.2,020.5,18.1,0000.0,0000.57,0002.88,0000.42
2024-02-19 04:24:00,SystemResetWarning,0823.3,4.99,000.00,018.8,018.2,000.0,027.2,020.5,17.9,0000.0,0000.56,0002.31,0000.43
2024-02-19 04:25:00,SystemResetWarning,0823.4,5.00,000.00,018.8,018.2,000.0,027.2,020.4,17.9,0000.0,0000.58,0002.35,0000.43
2024-02-19 04:26:00,SystemResetWarning,0823.4,5.00,000.00,018.8,018.2,000.0,027.2,020.4,18.0,0000.0,0000.61,0002.42,0000.43
2024-02-19 04:27:00,SystemResetWarning,0823.4,5.01,000.00,018.8,018.2,000.0,027.2,020.4,18.1,0000.0,0000.61,0002.43,0000.43
2024-02-19 04:28:00,SystemResetWarning,0823.4,5.00,000.00,018.8,018.2,000.0,027.2,020.4,18.0,0000.0,0000.61,0002.46,0000.43
2024-02-19 04:29:00,SystemResetWarning,0823.5,5.00,000.00,018.8,018.2,000.0,027.2,020.4,17.9,0000.0,0000.63,0002.54,0000.43
2024-02-19 04:30:00,SystemResetWarning,0823.4,5.00,000.00,018.8,018.2,000.0,027.1,020.4,17.9,0000.0,0000.62,0002.78,0000.43
2024-02-19 04:31:00,SystemResetWarning,0823.4,4.99,000.00,018.8,018.2,000.0,027.1,020.4,17.9,0000.0,0000.60,0002.74,0000.42
2024-02-19 04:32:00,SystemResetWarning,0823.4,4.99,000.00,018.8,018.1,000.0,027.1,020.4,18.0,0000.0,0000.61,0001.86,0000.42
2024-02-19 04:33:00,SystemResetWarning,0823.4,5.01,000.00,018.8,018.1,000.0,027.1,020.4,17.9,0000.0,0000.57,0001.20,0000.42
2024-02-19 04:34:00,SystemResetWarning,0823.4,5.00,000.00,018.8,018.1,000.0,027.1,020.4,18.0,0000.0,0000.59,0001.24,0000.42
2024-02-19 04:35:00,SystemResetWarning,0823.4,5.00,000.00,018.8,018.1,000.0,027.1,020.4,18.0,0000.0,0000.61,0001.26,0000.41
2024-02-19 04:36:00,SystemResetWarning,0823.5,5.01,000.00,018.7,018.1,000.0,027.1,020.4,18.0,0000.0,0000.57,0001.10,0000.41
2024-02-19 04:37:00,SystemResetWarning,0823.4,5.01,000.00,018.7,018.1,000.0,027.1,020.4,18.0,0000.0,0000.56,0001.06,0000.41
2024-02-19 04:38:00,SystemResetWarning,0823.3,5.00,000.00,018.7,018.1,000.0,027.1,020.4,18.0,0000.0,0000.60,0001.14,0000.42
2024-02-19 04:39:00,SystemResetWarning,0823.3,5.00,000.00,018.7,018.1,000.0,027.1,020.3,17.8,0000.0,0000.62,0002.07,0000.42
2024-02-19 04:40:00,SystemResetWarning,0823.3,5.00,000.00,018.7,018.1,000.0,027.1,020.3,17.7,0000.0,0000.61,0002.16,0000.42
2024-02-19 04:41:00,SystemResetWarning,0823.3,5.00,000.00,018.7,018.1,000.0,027.1,020.3,17.6,0000.0,0000.63,0001.94,0000.43
2024-02-19 04:42:00,SystemResetWarning,0823.2,5.00,000.00,018.7,018.1,000.0,027.1,020.3,17.6,0000.0,0000.66,0002.10,0000.43
2024-02-19 04:43:00,SystemResetWarning,0823.2,4.99,000.00,018.7,018.1,000.0,027.0,020.3,17.7,0000.0,0000.66,0002.17,0000.44
2024-02-19 04:44:00,SystemResetWarning,0823.1,4.99,000.00,018.7,018.1,000.0,027.1,020.3,17.8,0000.0,0000.69,0002.41,0000.45
2024-02-19 04:45:00,SystemResetWarning,0823.1,5.00,000.00,018.7,018.1,000.0,027.0,020.3,17.7,0000.0,0000.70,0002.43,0000.46
2024-02-19 04:46:00,SystemResetWarning,0823.1,5.00,000.00,018.7,018.1,000.0,027.0,020.3,17.7,0000.0,0000.70,0002.47,0000.47
2024-02-19 04:47:00,SystemResetWarning,0823.1,5.00,000.00,018.7,018.1,000.0,027.0,020.3,17.7,0000.0,0000.71,0002.49,0000.47
2024-02-19 04:48:00,SystemResetWarning,0823.1,5.00,000.00,018.7,018.1,000.0,027.0,020.3,17.5,0000.0,0000.71,0002.50,0000.47
2024-02-19 04:49:00,SystemResetWarning,0823.1,5.01,000.00,018.7,018.0,000.0,027.0,020.3,17.6,0000.0,0000.70,0002.51,0000.47
2024-02-19 04:50:00,SystemResetWarning,0823.0,4.99,000.00,018.6,018.0,000.0,027.0,020.3,17.6,0000.0,0000.68,0001.66,0000.48
2024-02-19 04:51:00,SystemResetWarning,0823.0,4.99,000.00,018.6,018.0,000.0,027.0,020.3,17.5,0000.0,0000.68,0001.41,0000.48
2024-02-19 04:52:00,SystemResetWarning,0822.9,5.00,000.00,018.6,018.0,000.0,027.0,020.3,17.2,0000.0,0000.66,0001.37,0000.49
2024-02-19 04:53:00,SystemResetWarning,0823.0,5.00,000.00,018.6,018.0,000.0,027.0,020.3,16.9,0000.0,0000.63,0001.22,0000.49
2024-02-19 04:54:00,SystemResetWarning,0823.1,5.00,000.00,018.6,018.0,000.0,027.0,020.2,17.1,0000.0,0000.61,0002.21,0000.48
2024-02-19 04:55:00,SystemResetWarning,0823.2,5.00,000.00,018.6,018.0,000.0,027.0,020.2,17.1,0000.0,0000.59,0002.00,0000.47
2024-02-19 04:56:00,SystemResetWarning,0823.2,5.00,000.00,018.6,018.0,000.0,027.0,020.2,17.2,0000.0,0000.59,0002.01,0000.46
2024-02-19 04:57:00,SystemResetWarning,0823.1,5.00,000.00,018.6,018.0,000.0,027.0,020.2,17.0,0000.0,0000.59,0002.00,0000.46
2024-02-19 04:58:00,SystemResetWarning,0823.0,5.00,000.00,018.6,018.0,000.0,027.0,020.2,16.9,0000.0,0000.58,0002.00,0000.46
2024-02-19 04:59:00,SystemResetWarning,0823.1,5.00,000.00,018.6,018.0,000.0,027.0,020.2,16.9,0000.0,0000.57,0001.97,0000.46
